Time,TemperatureF,DewpointF,PressureIn,WindDirection,WindDirectionDegrees,WindSpeedMPH,WindSpeedGustMPH,Humidity,HourlyPrecipIn,Conditions,Clouds,dailyrainin,SoftwareType,DateUTC
2013-02-28 00:00:00,53.8,43.1,30.33,WSW,248,0.0,0.0,67,0.00,,,0.00,Wunderground v.1.15,2013-02-28 08:00:00,
2013-02-28 00:06:00,53.6,42.9,30.33,WSW,248,0.0,0.0,67,0.00,,,0.00,Wunderground v.1.15,2013-02-28 08:06:00,
2013-02-28 00:11:00,53.4,42.7,30.33,WSW,248,0.0,0.0,67,0.00,,,0.00,Wunderground v.1.15,2013-02-28 08:11:00,
2013-02-28 00:17:00,53.3,43.0,30.33,WSW,248,0.0,0.0,68,0.00,,,0.00,Wunderground v.1.15,2013-02-28 08:17:00,
2013-02-28 00:23:00,53.3,43.0,30.33,WSW,248,0.0,0.0,68,0.00,,,0.00,Wunderground v.1.15,2013-02-28 08:23:00,
2013-02-28 00:30:00,53.3,43.0,30.33,WSW,248,0.0,0.0,68,0.00,,,0.00,Wunderground v.1.15,2013-02-28 08:30:00,
2013-02-28 00:36:00,53.3,43.4,30.33,WSW,248,0.0,1.0,69,0.00,,,0.00,Wunderground v.1.15,2013-02-28 08:36:00,
2013-02-28 00:42:00,53.3,43.4,30.33,WSW,247,0.0,0.0,69,0.00,,,0.00,Wunderground v.1.15,2013-02-28 08:42:00,
2013-02-28 00:47:00,53.3,43.4,30.33,WSW,247,0.0,0.0,69,0.00,,,0.00,Wunderground v.1.15,2013-02-28 08:47:00,
2013-02-28 00:53:00,53.3,43.8,30.33,WSW,247,0.0,0.0,70,0.00,,,0.00,Wunderground v.1.15,2013-02-28 08:53:00,
2013-02-28 00:59:00,53.3,43.8,30.33,WSW,247,0.0,0.0,70,0.00,,,0.00,Wunderground v.1.15,2013-02-28 08:59:00,
2013-02-28 01:06:00,53.2,43.7,30.33,WSW,247,0.0,0.0,70,0.00,,,0.00,Wunderground v.1.15,2013-02-28 09:06:00,
2013-02-28 01:11:00,52.9,43.4,30.33,WSW,247,0.0,0.0,70,0.00,,,0.00,Wunderground v.1.15,2013-02-28 09:11:00,
2013-02-28 01:17:00,52.5,43.4,30.34,WSW,247,0.0,0.0,71,0.00,,,0.00,Wunderground v.1.15,2013-02-28 09:17:00,
2013-02-28 01:23:00,52.1,43.0,30.34,WSW,247,0.0,0.0,71,0.00,,,0.00,Wunderground v.1.15,2013-02-28 09:23:00,
2013-02-28 01:29:00,51.7,43.0,30.33,WSW,247,0.0,0.0,72,0.00,,,0.00,Wunderground v.1.15,2013-02-28 09:29:00,
2013-02-28 01:36:00,51.2,42.5,30.34,WSW,247,0.0,0.0,72,0.00,,,0.00,Wunderground v.1.15,2013-02-28 09:36:00,
2013-02-28 01:42:00,50.8,42.5,30.34,WSW,247,0.0,0.0,73,0.00,,,0.00,Wunderground v.1.15,2013-02-28 09:42:00,
2013-02-28 01:47:00,50.4,42.1,30.34,WSW,247,0.0,0.0,73,0.00,,,0.00,Wunderground v.1.15,2013-02-28 09:47:00,
2013-02-28 01:53:00,50.2,42.2,30.34,WSW,247,0.0,0.0,74,0.00,,,0.00,Wunderground v.1.15,2013-02-28 09:53:00,
2013-02-28 01:59:00,50.3,43.0,30.34,WSW,247,0.0,0.0,76,0.00,,,0.00,Wunderground v.1.15,2013-02-28 09:59:00,
2013-02-28 02:06:00,50.7,43.8,30.34,WSW,247,0.0,0.0,77,0.00,,,0.00,Wunderground v.1.15,2013-02-28 10:06:00,
2013-02-28 02:11:00,51.0,43.7,30.34,WSW,247,0.0,0.0,76,0.00,,,0.00,Wunderground v.1.15,2013-02-28 10:11:00,
2013-02-28 02:17:00,51.0,43.7,30.33,WSW,247,0.0,0.0,76,0.00,,,0.00,Wunderground v.1.15,2013-02-28 10:17:00,
2013-02-28 02:23:00,50.8,43.8,30.33,WSW,247,0.0,0.0,77,0.00,,,0.00,Wunderground v.1.15,2013-02-28 10:23:00,
2013-02-28 02:29:00,50.6,43.7,30.33,WSW,247,0.0,0.0,77,0.00,,,0.00,Wunderground v.1.15,2013-02-28 10:29:00,
2013-02-28 02:36:00,50.4,43.5,30.33,WSW,247,0.0,0.0,77,0.00,,,0.00,Wunderground v.1.15,2013-02-28 10:36:00,
2013-02-28 02:42:00,50.3,43.4,30.33,WSW,247,0.0,0.0,77,0.00,,,0.00,Wunderground v.1.15,2013-02-28 10:42:00,
2013-02-28 02:47:00,50.0,43.1,30.33,WSW,247,0.0,0.0,77,0.00,,,0.00,Wunderground v.1.15,2013-02-28 10:47:00,
2013-02-28 02:53:00,49.8,42.9,30.33,WSW,247,0.0,0.0,77,0.00,,,0.00,Wunderground v.1.15,2013-02-28 10:53:00,
2013-02-28 02:59:00,49.5,42.6,30.33,WSW,247,0.0,0.0,77,0.00,,,0.00,Wunderground v.1.15,2013-02-28 10:59:00,
2013-02-28 03:06:00,49.2,42.6,30.33,WSW,247,0.0,0.0,78,0.00,,,0.00,Wunderground v.1.15,2013-02-28 11:06:00,
2013-02-28 03:11:00,49.0,42.4,30.33,WSW,247,0.0,0.0,78,0.00,,,0.00,Wunderground v.1.15,2013-02-28 11:11:00,
2013-02-28 03:17:00,48.8,42.6,30.34,WSW,247,0.0,0.0,79,0.00,,,0.00,Wunderground v.1.15,2013-02-28 11:17:00,
2013-02-28 03:23:00,48.8,42.6,30.34,WSW,247,0.0,0.0,79,0.00,,,0.00,Wunderground v.1.15,2013-02-28 11:23:00,
2013-02-28 03:29:00,48.7,42.8,30.33,WSW,247,0.0,0.0,80,0.00,,,0.00,Wunderground v.1.15,2013-02-28 11:29:00,
2013-02-28 03:36:00,48.9,43.3,30.33,WSW,247,0.0,0.0,81,0.00,,,0.00,Wunderground v.1.15,2013-02-28 11:36:00,
2013-02-28 03:41:00,48.9,43.3,30.33,WSW,247,0.0,0.0,81,0.00,,,0.00,Wunderground v.1.15,2013-02-28 11:41:00,
2013-02-28 03:47:00,48.9,43.3,30.33,WSW,247,0.0,0.0,81,0.00,,,0.00,Wunderground v.1.15,2013-02-28 11:47:00,
2013-02-28 03:53:00,48.9,43.3,30.33,WSW,247,0.0,0.0,81,0.00,,,0.00,Wunderground v.1.15,2013-02-28 11:53:00,
2013-02-28 03:59:00,48.9,43.6,30.33,WSW,248,0.0,0.0,82,0.00,,,0.00,Wunderground v.1.15,2013-02-28 11:59:00,
2013-02-28 04:06:00,48.8,43.5,30.33,WSW,248,0.0,0.0,82,0.00,,,0.00,Wunderground v.1.15,2013-02-28 12:06:00,
2013-02-28 04:11:00,48.7,43.5,30.33,WSW,248,0.0,0.0,82,0.00,,,0.00,Wunderground v.1.15,2013-02-28 12:11:00,
2013-02-28 04:17:00,48.6,43.0,30.33,WSW,248,0.0,0.0,81,0.00,,,0.00,Wunderground v.1.15,2013-02-28 12:17:00,
2013-02-28 04:23:00,48.3,42.7,30.34,WSW,247,0.0,0.0,81,0.00,,,0.00,Wunderground v.1.15,2013-02-28 12:23:00,
2013-02-28 04:29:00,48.1,42.5,30.34,WSW,247,0.0,0.0,81,0.00,,,0.00,Wunderground v.1.15,2013-02-28 12:29:00,
2013-02-28 04:36:00,47.7,41.8,30.34,WSW,247,0.0,0.0,80,0.00,,,0.00,Wunderground v.1.15,2013-02-28 12:36:00,
2013-02-28 04:41:00,47.4,41.9,30.34,WSW,247,0.0,0.0,81,0.00,,,0.00,Wunderground v.1.15,2013-02-28 12:41:00,
2013-02-28 04:47:00,47.1,41.6,30.34,WSW,248,0.0,0.0,81,0.00,,,0.00,Wunderground v.1.15,2013-02-28 12:47:00,
2013-02-28 04:53:00,46.9,41.4,30.35,WSW,248,0.0,0.0,81,0.00,,,0.00,Wunderground v.1.15,2013-02-28 12:53:00,
2013-02-28 04:59:00,46.8,41.3,30.35,WSW,247,0.0,0.0,81,0.00,,,0.00,Wunderground v.1.15,2013-02-28 12:59:00,
2013-02-28 05:06:00,46.6,41.4,30.35,WSW,248,0.0,0.0,82,0.00,,,0.00,Wunderground v.1.15,2013-02-28 13:06:00,
2013-02-28 05:11:00,46.6,41.4,30.35,WSW,247,0.0,0.0,82,0.00,,,0.00,Wunderground v.1.15,2013-02-28 13:11:00,
2013-02-28 05:17:00,46.5,41.3,30.36,WSW,248,0.0,0.0,82,0.00,,,0.00,Wunderground v.1.15,2013-02-28 13:17:00,
2013-02-28 05:23:00,46.4,41.2,30.36,WSW,247,0.0,0.0,82,0.00,,,0.00,Wunderground v.1.15,2013-02-28 13:23:00,
2013-02-28 05:29:00,46.3,41.1,30.36,WSW,248,0.0,0.0,82,0.00,,,0.00,Wunderground v.1.15,2013-02-28 13:29:00,
2013-02-28 05:35:00,46.3,41.4,30.37,WSW,248,0.0,0.0,83,0.00,,,0.00,Wunderground v.1.15,2013-02-28 13:35:00,
2013-02-28 05:41:00,46.2,41.3,30.37,WSW,248,0.0,0.0,83,0.00,,,0.00,Wunderground v.1.15,2013-02-28 13:41:00,
2013-02-28 05:47:00,46.2,41.3,30.37,WSW,247,0.0,0.0,83,0.00,,,0.00,Wunderground v.1.15,2013-02-28 13:47:00,
2013-02-28 05:53:00,46.2,41.3,30.37,WSW,248,0.0,0.0,83,0.00,,,0.00,Wunderground v.1.15,2013-02-28 13:53:00,
2013-02-28 05:59:00,46.2,41.3,30.37,WSW,248,0.0,0.0,83,0.00,,,0.00,Wunderground v.1.15,2013-02-28 13:59:00,
2013-02-28 06:06:00,46.1,41.5,30.38,WSW,248,0.0,0.0,84,0.00,,,0.00,Wunderground v.1.15,2013-02-28 14:06:00,
2013-02-28 06:11:00,46.1,41.5,30.38,WSW,247,0.0,0.0,84,0.00,,,0.00,Wunderground v.1.15,2013-02-28 14:11:00,
2013-02-28 06:17:00,46.0,41.4,30.38,WSW,248,0.0,0.0,84,0.00,,,0.00,Wunderground v.1.15,2013-02-28 14:17:00,
2013-02-28 06:23:00,45.9,41.3,30.38,WSW,248,0.0,0.0,84,0.00,,,0.00,Wunderground v.1.15,2013-02-28 14:23:00,
2013-02-28 06:29:00,45.8,41.2,30.38,WSW,248,0.0,0.0,84,0.00,,,0.00,Wunderground v.1.15,2013-02-28 14:29:00,
2013-02-28 06:36:00,45.7,41.1,30.38,WSW,248,0.0,0.0,84,0.00,,,0.00,Wunderground v.1.15,2013-02-28 14:36:00,
2013-02-28 06:41:00,45.6,41.0,30.38,WSW,248,0.0,0.0,84,0.00,,,0.00,Wunderground v.1.15,2013-02-28 14:41:00,
2013-02-28 06:47:00,45.6,41.0,30.38,WSW,248,0.0,0.0,84,0.00,,,0.00,Wunderground v.1.15,2013-02-28 14:47:00,
2013-02-28 06:53:00,45.6,41.0,30.38,WSW,248,0.0,0.0,84,0.00,,,0.00,Wunderground v.1.15,2013-02-28 14:53:00,
2013-02-28 06:59:00,45.7,41.4,30.39,WSW,248,0.0,0.0,85,0.00,,,0.00,Wunderground v.1.15,2013-02-28 14:59:00,
2013-02-28 07:06:00,45.7,41.4,30.39,WSW,248,0.0,0.0,85,0.00,,,0.00,Wunderground v.1.15,2013-02-28 15:06:00,
2013-02-28 07:11:00,45.9,41.6,30.39,WSW,248,0.0,0.0,85,0.00,,,0.00,Wunderground v.1.15,2013-02-28 15:11:00,
2013-02-28 07:17:00,46.1,41.8,30.39,WSW,248,0.0,0.0,85,0.00,,,0.00,Wunderground v.1.15,2013-02-28 15:17:00,
2013-02-28 07:23:00,46.4,42.1,30.39,WSW,248,0.0,0.0,85,0.00,,,0.00,Wunderground v.1.15,2013-02-28 15:23:00,
2013-02-28 07:29:00,46.6,42.3,30.39,WSW,248,0.0,0.0,85,0.00,,,0.00,Wunderground v.1.15,2013-02-28 15:29:00,
2013-02-28 07:36:00,46.8,42.5,30.39,WSW,248,0.0,0.0,85,0.00,,,0.00,Wunderground v.1.15,2013-02-28 15:36:00,
2013-02-28 07:41:00,46.9,42.6,30.40,WSW,248,0.0,0.0,85,0.00,,,0.00,Wunderground v.1.15,2013-02-28 15:41:00,
2013-02-28 07:47:00,47.0,42.7,30.40,WSW,248,0.0,0.0,85,0.00,,,0.00,Wunderground v.1.15,2013-02-28 15:47:00,
2013-02-28 07:53:00,47.0,42.7,30.40,WSW,248,0.0,0.0,85,0.00,,,0.00,Wunderground v.1.15,2013-02-28 15:53:00,
2013-02-28 07:59:00,47.0,42.7,30.40,WSW,248,0.0,0.0,85,0.00,,,0.00,Wunderground v.1.15,2013-02-28 15:59:00,
2013-02-28 08:05:00,47.2,42.9,30.40,WSW,248,0.0,0.0,85,0.00,,,0.00,Wunderground v.1.15,2013-02-28 16:05:00,
2013-02-28 08:11:00,47.6,43.3,30.40,WSW,248,0.0,0.0,85,0.00,,,0.00,Wunderground v.1.15,2013-02-28 16:11:00,
2013-02-28 08:17:00,48.1,43.5,30.40,WSW,248,0.0,0.0,84,0.00,,,0.00,Wunderground v.1.15,2013-02-28 16:17:00,
2013-02-28 08:23:00,48.9,44.3,30.40,WSW,248,0.0,0.0,84,0.00,,,0.00,Wunderground v.1.15,2013-02-28 16:23:00,
2013-02-28 08:29:00,49.8,44.8,30.40,WSW,247,0.0,0.0,83,0.00,,,0.00,Wunderground v.1.15,2013-02-28 16:29:00,
2013-02-28 08:35:00,50.6,45.3,30.41,WSW,247,0.0,0.0,82,0.00,,,0.00,Wunderground v.1.15,2013-02-28 16:35:00,
2013-02-28 08:41:00,51.5,45.9,30.41,WSW,242,0.0,0.0,81,0.00,,,0.00,Wunderground v.1.15,2013-02-28 16:41:00,
2013-02-28 08:47:00,52.1,45.8,30.42,WSW,242,0.0,0.0,79,0.00,,,0.00,Wunderground v.1.15,2013-02-28 16:47:00,
2013-02-28 08:53:00,52.8,46.1,30.42,WSW,242,0.0,0.0,78,0.00,,,0.00,Wunderground v.1.15,2013-02-28 16:53:00,
2013-02-28 08:59:00,53.5,46.5,30.42,NNW,337,0.0,0.0,77,0.00,,,0.00,Wunderground v.1.15,2013-02-28 16:59:00,
2013-02-28 09:05:00,54.2,46.8,30.42,North,351,0.0,1.0,76,0.00,,,0.00,Wunderground v.1.15,2013-02-28 17:05:00,
2013-02-28 09:11:00,54.7,46.9,30.41,NNW,331,0.0,2.0,75,0.00,,,0.00,Wunderground v.1.15,2013-02-28 17:11:00,
2013-02-28 09:17:00,55.3,47.5,30.41,WNW,297,0.0,2.0,75,0.00,,,0.00,Wunderground v.1.15,2013-02-28 17:17:00,
2013-02-28 09:23:00,55.8,47.3,30.41,WNW,298,0.0,3.0,73,0.00,,,0.00,Wunderground v.1.15,2013-02-28 17:23:00,
2013-02-28 09:29:00,56.1,47.6,30.41,WNW,298,0.0,0.0,73,0.00,,,0.00,Wunderground v.1.15,2013-02-28 17:29:00,
2013-02-28 09:35:00,56.5,47.9,30.41,WNW,298,0.0,0.0,73,0.00,,,0.00,Wunderground v.1.15,2013-02-28 17:35:00,
2013-02-28 09:41:00,56.9,48.3,30.41,WNW,298,0.0,0.0,73,0.00,,,0.00,Wunderground v.1.15,2013-02-28 17:41:00,
2013-02-28 09:47:00,57.5,48.5,30.41,WNW,298,0.0,0.0,72,0.00,,,0.00,Wunderground v.1.15,2013-02-28 17:47:00,
2013-02-28 09:53:00,58.4,48.7,30.41,NW,319,0.0,0.0,70,0.00,,,0.00,Wunderground v.1.15,2013-02-28 17:53:00,
2013-02-28 09:59:00,59.0,48.8,30.41,NW,311,0.0,0.0,69,0.00,,,0.00,Wunderground v.1.15,2013-02-28 17:59:00,
2013-02-28 10:05:00,59.6,49.0,30.41,NE,45,0.0,1.0,68,0.00,,,0.00,Wunderground v.1.15,2013-02-28 18:05:00,
2013-02-28 10:11:00,60.1,49.1,30.41,WNW,302,0.0,1.0,67,0.00,,,0.00,Wunderground v.1.15,2013-02-28 18:11:00,
2013-02-28 10:17:00,60.6,49.2,30.41,NNW,332,0.0,1.0,66,0.00,,,0.00,Wunderground v.1.15,2013-02-28 18:17:00,
2013-02-28 10:23:00,61.1,49.7,30.41,NNW,332,0.0,0.0,66,0.00,,,0.00,Wunderground v.1.15,2013-02-28 18:23:00,
2013-02-28 10:29:00,62.1,51.0,30.41,NNW,332,0.0,0.0,67,0.00,,,0.00,Wunderground v.1.15,2013-02-28 18:29:00,
2013-02-28 10:35:00,62.8,50.9,30.40,NNW,340,0.0,0.0,65,0.00,,,0.00,Wunderground v.1.15,2013-02-28 18:35:00,
2013-02-28 10:41:00,64.3,51.4,30.40,NNW,340,0.0,0.0,63,0.00,,,0.00,Wunderground v.1.15,2013-02-28 18:41:00,
2013-02-28 10:47:00,65.7,51.4,30.40,NNW,340,0.0,0.0,60,0.00,,,0.00,Wunderground v.1.15,2013-02-28 18:47:00,
2013-02-28 10:53:00,66.2,51.4,30.39,NNW,340,0.0,0.0,59,0.00,,,0.00,Wunderground v.1.15,2013-02-28 18:53:00,
2013-02-28 10:59:00,67.3,52.5,30.39,SW,216,0.0,0.0,59,0.00,,,0.00,Wunderground v.1.15,2013-02-28 18:59:00,
2013-02-28 11:05:00,68.5,50.7,30.39,SW,216,0.0,0.0,53,0.00,,,0.00,Wunderground v.1.15,2013-02-28 19:05:00,
2013-02-28 11:11:00,68.9,52.1,30.39,SSW,206,0.0,0.0,55,0.00,,,0.00,Wunderground v.1.15,2013-02-28 19:11:00,
2013-02-28 11:17:00,69.7,52.8,30.39,SSW,206,0.0,1.0,55,0.00,,,0.00,Wunderground v.1.15,2013-02-28 19:17:00,
2013-02-28 11:23:00,70.7,52.2,30.39,ENE,67,0.0,1.0,52,0.00,,,0.00,Wunderground v.1.15,2013-02-28 19:23:00,
2013-02-28 11:29:00,70.8,51.2,30.38,SSE,162,0.0,0.0,50,0.00,,,0.00,Wunderground v.1.15,2013-02-28 19:29:00,
2013-02-28 11:35:00,70.9,51.3,30.38,South,169,0.0,0.0,50,0.00,,,0.00,Wunderground v.1.15,2013-02-28 19:35:00,
2013-02-28 11:41:00,71.0,51.4,30.38,South,169,0.0,0.0,50,0.00,,,0.00,Wunderground v.1.15,2013-02-28 19:41:00,
2013-02-28 11:47:00,70.7,50.6,30.38,South,169,0.0,0.0,49,0.00,,,0.00,Wunderground v.1.15,2013-02-28 19:47:00,
2013-02-28 11:53:00,70.3,50.2,30.38,SSE,168,0.0,0.0,49,0.00,,,0.00,Wunderground v.1.15,2013-02-28 19:53:00,
2013-02-28 11:59:00,69.8,49.8,30.38,SSE,157,0.0,0.0,49,0.00,,,0.00,Wunderground v.1.15,2013-02-28 19:59:00,
2013-02-28 12:06:00,69.5,48.4,30.38,SSE,157,0.0,0.0,47,0.00,,,0.00,Wunderground v.1.15,2013-02-28 20:06:00,
2013-02-28 12:11:00,68.9,48.4,30.38,SSE,157,0.0,0.0,48,0.00,,,0.00,Wunderground v.1.15,2013-02-28 20:11:00,
2013-02-28 12:17:00,68.9,48.9,30.38,SSE,160,0.0,0.0,49,0.00,,,0.00,Wunderground v.1.15,2013-02-28 20:17:00,
2013-02-28 12:23:00,68.7,48.2,30.37,SSE,157,0.0,1.0,48,0.00,,,0.00,Wunderground v.1.15,2013-02-28 20:23:00,
2013-02-28 12:29:00,68.3,48.4,30.37,SSE,155,0.0,0.0,49,0.00,,,0.00,Wunderground v.1.15,2013-02-28 20:29:00,
2013-02-28 12:35:00,68.4,48.5,30.37,SSE,149,0.0,0.0,49,0.00,,,0.00,Wunderground v.1.15,2013-02-28 20:35:00,
2013-02-28 12:41:00,68.7,50.9,30.37,SSE,163,0.0,1.0,53,0.00,,,0.00,Wunderground v.1.15,2013-02-28 20:41:00,
2013-02-28 12:47:00,69.0,51.7,30.36,South,183,0.0,2.0,54,0.00,,,0.00,Wunderground v.1.15,2013-02-28 20:47:00,
2013-02-28 12:53:00,69.2,51.8,30.36,South,184,0.0,1.0,54,0.00,,,0.00,Wunderground v.1.15,2013-02-28 20:53:00,
2013-02-28 12:59:00,69.3,50.9,30.36,West,279,0.0,0.0,52,0.00,,,0.00,Wunderground v.1.15,2013-02-28 20:59:00,
2013-02-28 13:05:00,69.5,51.6,30.36,West,279,1.0,1.0,53,0.00,,,0.00,Wunderground v.1.15,2013-02-28 21:05:00,
2013-02-28 13:11:00,69.9,52.5,30.36,West,280,0.0,0.0,54,0.00,,,0.00,Wunderground v.1.15,2013-02-28 21:11:00,
2013-02-28 13:17:00,69.9,50.9,30.35,NW,309,1.0,1.0,51,0.00,,,0.00,Wunderground v.1.15,2013-02-28 21:17:00,
2013-02-28 13:23:00,69.4,50.5,30.35,NNW,327,1.0,3.0,51,0.00,,,0.00,Wunderground v.1.15,2013-02-28 21:23:00,
2013-02-28 13:29:00,69.2,50.8,30.35,NNW,329,2.0,2.0,52,0.00,,,0.00,Wunderground v.1.15,2013-02-28 21:29:00,
2013-02-28 13:35:00,69.2,51.3,30.34,NNE,14,1.0,2.0,53,0.00,,,0.00,Wunderground v.1.15,2013-02-28 21:35:00,
2013-02-28 13:41:00,69.4,51.0,30.34,North,9,1.0,1.0,52,0.00,,,0.00,Wunderground v.1.15,2013-02-28 21:41:00,
2013-02-28 13:47:00,70.3,52.9,30.34,North,9,0.0,1.0,54,0.00,,,0.00,Wunderground v.1.15,2013-02-28 21:47:00,
2013-02-28 13:53:00,71.3,52.8,30.34,North,9,0.0,1.0,52,0.00,,,0.00,Wunderground v.1.15,2013-02-28 21:53:00,
2013-02-28 13:59:00,73.1,53.4,30.33,North,9,0.0,0.0,50,0.00,,,0.00,Wunderground v.1.15,2013-02-28 21:59:00,
2013-02-28 14:05:00,73.4,52.5,30.33,SW,223,0.0,0.0,48,0.00,,,0.00,Wunderground v.1.15,2013-02-28 22:05:00,
2013-02-28 14:11:00,73.8,52.9,30.33,SW,221,1.0,1.0,48,0.00,,,0.00,Wunderground v.1.15,2013-02-28 22:11:00,
2013-02-28 14:17:00,74.7,53.7,30.33,SW,221,0.0,1.0,48,0.00,,,0.00,Wunderground v.1.15,2013-02-28 22:17:00,
2013-02-28 14:23:00,75.4,54.3,30.33,SW,222,0.0,0.0,48,0.00,,,0.00,Wunderground v.1.15,2013-02-28 22:23:00,
2013-02-28 14:29:00,76.1,53.8,30.33,SW,222,0.0,0.0,46,0.00,,,0.00,Wunderground v.1.15,2013-02-28 22:29:00,
2013-02-28 14:35:00,76.4,54.1,30.33,SW,222,0.0,0.0,46,0.00,,,0.00,Wunderground v.1.15,2013-02-28 22:35:00,
2013-02-28 14:42:00,76.4,52.9,30.33,SW,222,0.0,0.0,44,0.00,,,0.00,Wunderground v.1.15,2013-02-28 22:42:00,
2013-02-28 14:48:00,75.6,52.1,30.33,SW,222,0.0,0.0,44,0.00,,,0.00,Wunderground v.1.15,2013-02-28 22:48:00,
2013-02-28 14:54:00,74.1,52.6,30.33,SW,222,0.0,0.0,47,0.00,,,0.00,Wunderground v.1.15,2013-02-28 22:54:00,
2013-02-28 15:00:00,73.1,52.8,30.33,NW,324,0.0,0.0,49,0.00,,,0.00,Wunderground v.1.15,2013-02-28 23:00:00,
2013-02-28 15:06:00,73.2,54.0,30.33,WNW,293,0.0,1.0,51,0.00,,,0.00,Wunderground v.1.15,2013-02-28 23:06:00,
2013-02-28 15:12:00,74.0,54.2,30.33,SSW,210,0.0,1.0,50,0.00,,,0.00,Wunderground v.1.15,2013-02-28 23:12:00,
2013-02-28 15:18:00,74.6,54.7,30.34,SSW,210,0.0,1.0,50,0.00,,,0.00,Wunderground v.1.15,2013-02-28 23:18:00,
2013-02-28 15:24:00,75.0,55.1,30.34,NW,310,0.0,4.0,50,0.00,,,0.00,Wunderground v.1.15,2013-02-28 23:24:00,
2013-02-28 15:30:00,75.1,54.6,30.34,South,184,0.0,0.0,49,0.00,,,0.00,Wunderground v.1.15,2013-02-28 23:30:00,
2013-02-28 15:36:00,75.0,54.5,30.33,SW,234,0.0,2.0,49,0.00,,,0.00,Wunderground v.1.15,2013-02-28 23:36:00,
2013-02-28 15:42:00,74.9,55.0,30.33,SSW,208,1.0,1.0,50,0.00,,,0.00,Wunderground v.1.15,2013-02-28 23:42:00,
2013-02-28 15:48:00,75.1,55.2,30.33,SSW,213,0.0,1.0,50,0.00,,,0.00,Wunderground v.1.15,2013-02-28 23:48:00,
2013-02-28 15:54:00,75.0,54.5,30.33,SSW,212,0.0,0.0,49,0.00,,,0.00,Wunderground v.1.15,2013-02-28 23:54:00,
2013-02-28 16:00:00,74.7,54.3,30.33,SW,223,0.0,1.0,49,0.00,,,0.00,Wunderground v.1.15,2013-03-01 00:00:00,
2013-02-28 16:06:00,74.1,54.3,30.33,SSW,196,0.0,3.0,50,0.00,,,0.00,Wunderground v.1.15,2013-03-01 00:06:00,
2013-02-28 16:12:00,73.8,53.4,30.33,WSW,258,1.0,3.0,49,0.00,,,0.00,Wunderground v.1.15,2013-03-01 00:12:00,
2013-02-28 16:18:00,73.5,53.7,30.33,SW,236,1.0,3.0,50,0.00,,,0.00,Wunderground v.1.15,2013-03-01 00:18:00,
2013-02-28 16:24:00,73.1,53.9,30.33,WSW,237,0.0,0.0,51,0.00,,,0.00,Wunderground v.1.15,2013-03-01 00:24:00,
2013-02-28 16:30:00,72.6,53.4,30.32,WSW,237,0.0,0.0,51,0.00,,,0.00,Wunderground v.1.15,2013-03-01 00:30:00,
2013-02-28 16:36:00,71.9,52.8,30.32,WSW,237,0.0,0.0,51,0.00,,,0.00,Wunderground v.1.15,2013-03-01 00:36:00,
2013-02-28 16:42:00,71.3,53.3,30.33,WSW,237,0.0,0.0,53,0.00,,,0.00,Wunderground v.1.15,2013-03-01 00:42:00,
2013-02-28 16:48:00,70.7,53.2,30.33,SW,235,0.0,1.0,54,0.00,,,0.00,Wunderground v.1.15,2013-03-01 00:48:00,
2013-02-28 16:54:00,70.2,52.8,30.33,SW,234,0.0,0.0,54,0.00,,,0.00,Wunderground v.1.15,2013-03-01 00:54:00,
2013-02-28 17:00:00,69.8,52.9,30.33,SW,234,0.0,0.0,55,0.00,,,0.00,Wunderground v.1.15,2013-03-01 01:00:00,
2013-02-28 17:06:00,69.4,53.0,30.33,SW,234,0.0,1.0,56,0.00,,,0.00,Wunderground v.1.15,2013-03-01 01:06:00,
2013-02-28 17:12:00,69.0,53.1,30.33,SW,234,0.0,0.0,57,0.00,,,0.00,Wunderground v.1.15,2013-03-01 01:12:00,
2013-02-28 17:18:00,68.6,53.2,30.33,SW,234,0.0,0.0,58,0.00,,,0.00,Wunderground v.1.15,2013-03-01 01:18:00,
2013-02-28 17:23:00,68.3,53.9,30.33,SW,234,0.0,0.0,60,0.00,,,0.00,Wunderground v.1.15,2013-03-01 01:23:00,
2013-02-28 17:30:00,67.8,53.4,30.33,SW,234,0.0,0.0,60,0.00,,,0.00,Wunderground v.1.15,2013-03-01 01:30:00,
2013-02-28 17:36:00,67.4,53.9,30.34,SW,234,0.0,0.0,62,0.00,,,0.00,Wunderground v.1.15,2013-03-01 01:36:00,
2013-02-28 17:42:00,66.9,53.5,30.34,SW,234,0.0,0.0,62,0.00,,,0.00,Wunderground v.1.15,2013-03-01 01:42:00,
2013-02-28 17:48:00,66.2,53.2,30.34,SW,234,0.0,0.0,63,0.00,,,0.00,Wunderground v.1.15,2013-03-01 01:48:00,
2013-02-28 17:54:00,65.4,52.9,30.34,SW,234,0.0,0.0,64,0.00,,,0.00,Wunderground v.1.15,2013-03-01 01:54:00,
2013-02-28 18:00:00,64.6,52.6,30.34,SW,234,0.0,0.0,65,0.00,,,0.00,Wunderground v.1.15,2013-03-01 02:00:00,
2013-02-28 18:06:00,63.8,51.8,30.34,SW,234,0.0,0.0,65,0.00,,,0.00,Wunderground v.1.15,2013-03-01 02:06:00,
2013-02-28 18:11:00,63.1,51.6,30.35,SW,234,0.0,0.0,66,0.00,,,0.00,Wunderground v.1.15,2013-03-01 02:11:00,
2013-02-28 18:18:00,62.4,51.7,30.35,SW,234,0.0,0.0,68,0.00,,,0.00,Wunderground v.1.15,2013-03-01 02:18:00,
2013-02-28 18:24:00,61.8,51.5,30.35,SW,234,0.0,0.0,69,0.00,,,0.00,Wunderground v.1.15,2013-03-01 02:24:00,
2013-02-28 18:29:00,61.3,51.0,30.35,SW,234,0.0,0.0,69,0.00,,,0.00,Wunderground v.1.15,2013-03-01 02:29:00,
2013-02-28 18:36:00,60.8,51.3,30.35,SW,234,0.0,0.0,71,0.00,,,0.00,Wunderground v.1.15,2013-03-01 02:36:00,
2013-02-28 18:42:00,60.3,50.9,30.35,SW,234,0.0,0.0,71,0.00,,,0.00,Wunderground v.1.15,2013-03-01 02:42:00,
2013-02-28 18:48:00,59.7,50.7,30.36,SW,234,0.0,0.0,72,0.00,,,0.00,Wunderground v.1.15,2013-03-01 02:48:00,
2013-02-28 18:53:00,59.0,50.4,30.36,SW,234,0.0,0.0,73,0.00,,,0.00,Wunderground v.1.15,2013-03-01 02:53:00,
2013-02-28 18:59:00,58.7,50.1,30.36,SW,234,0.0,0.0,73,0.00,,,0.00,Wunderground v.1.15,2013-03-01 02:59:00,
2013-02-28 19:06:00,58.1,49.9,30.36,SW,234,0.0,0.0,74,0.00,,,0.00,Wunderground v.1.15,2013-03-01 03:06:00,
2013-02-28 19:11:00,57.6,49.4,30.36,SW,234,0.0,0.0,74,0.00,,,0.00,Wunderground v.1.15,2013-03-01 03:11:00,
2013-02-28 19:18:00,57.2,49.3,30.37,SW,234,0.0,0.0,75,0.00,,,0.00,Wunderground v.1.15,2013-03-01 03:18:00,
2013-02-28 19:23:00,56.8,49.3,30.37,SW,234,0.0,0.0,76,0.00,,,0.00,Wunderground v.1.15,2013-03-01 03:23:00,
2013-02-28 19:29:00,56.3,48.8,30.37,SW,234,0.0,0.0,76,0.00,,,0.00,Wunderground v.1.15,2013-03-01 03:29:00,
2013-02-28 19:36:00,55.9,48.8,30.38,SW,234,0.0,0.0,77,0.00,,,0.00,Wunderground v.1.15,2013-03-01 03:36:00,
2013-02-28 19:41:00,55.5,48.4,30.38,SW,234,0.0,0.0,77,0.00,,,0.00,Wunderground v.1.15,2013-03-01 03:41:00,
2013-02-28 19:47:00,55.2,48.5,30.38,SW,234,0.0,0.0,78,0.00,,,0.00,Wunderground v.1.15,2013-03-01 03:47:00,
2013-02-28 19:53:00,54.9,48.2,30.38,SW,234,0.0,0.0,78,0.00,,,0.00,Wunderground v.1.15,2013-03-01 03:53:00,
2013-02-28 20:00:00,54.6,48.2,30.38,SW,234,0.0,0.0,79,0.00,,,0.00,Wunderground v.1.15,2013-03-01 04:00:00,
2013-02-28 20:06:00,54.3,47.9,30.38,SW,234,0.0,0.0,79,0.00,,,0.00,Wunderground v.1.15,2013-03-01 04:06:00,
2013-02-28 20:11:00,53.9,47.9,30.38,SW,234,0.0,0.0,80,0.00,,,0.00,Wunderground v.1.15,2013-03-01 04:11:00,
2013-02-28 20:17:00,53.6,47.6,30.38,SW,234,0.0,0.0,80,0.00,,,0.00,Wunderground v.1.15,2013-03-01 04:17:00,
2013-02-28 20:23:00,53.3,47.3,30.38,SW,234,0.0,0.0,80,0.00,,,0.00,Wunderground v.1.15,2013-03-01 04:23:00,
2013-02-28 20:29:00,53.0,47.3,30.38,SW,234,0.0,0.0,81,0.00,,,0.00,Wunderground v.1.15,2013-03-01 04:29:00,
2013-02-28 20:36:00,52.7,47.0,30.39,SW,234,0.0,0.0,81,0.00,,,0.00,Wunderground v.1.15,2013-03-01 04:36:00,
2013-02-28 20:41:00,52.5,47.2,30.39,SW,234,0.0,0.0,82,0.00,,,0.00,Wunderground v.1.15,2013-03-01 04:41:00,
2013-02-28 20:47:00,52.3,47.0,30.39,SW,234,0.0,0.0,82,0.00,,,0.00,Wunderground v.1.15,2013-03-01 04:47:00,
2013-02-28 20:54:00,52.0,46.7,30.39,SW,234,0.0,0.0,82,0.00,,,0.00,Wunderground v.1.15,2013-03-01 04:54:00,
2013-02-28 20:59:00,51.8,46.5,30.39,SW,234,0.0,0.0,82,0.00,,,0.00,Wunderground v.1.15,2013-03-01 04:59:00,
2013-02-28 21:01:00,51.7,46.4,30.39,SW,234,0.0,0.0,82,0.00,,,0.00,Wunderground v.1.15,2013-03-01 05:01:00,
2013-02-28 21:03:00,51.7,46.7,30.39,SW,234,0.0,0.0,83,0.00,,,0.00,Wunderground v.1.15,2013-03-01 05:03:00,
2013-02-28 21:07:00,51.5,46.5,30.39,SW,234,0.0,0.0,83,0.00,,,0.00,Wunderground v.1.15,2013-03-01 05:07:00,
2013-02-28 21:09:00,51.4,46.4,30.39,SW,234,0.0,0.0,83,0.00,,,0.00,Wunderground v.1.15,2013-03-01 05:09:00,
2013-02-28 21:16:00,51.2,46.2,30.40,SW,234,0.0,0.0,83,0.00,,,0.00,Wunderground v.1.15,2013-03-01 05:16:00,
2013-02-28 21:21:00,51.0,46.3,30.40,SW,234,0.0,0.0,84,0.00,,,0.00,Wunderground v.1.15,2013-03-01 05:21:00,
2013-02-28 21:27:00,50.8,46.1,30.40,SW,234,0.0,0.0,84,0.00,,,0.00,Wunderground v.1.15,2013-03-01 05:27:00,
2013-02-28 21:33:00,50.6,45.9,30.41,SW,234,0.0,0.0,84,0.00,,,0.00,Wunderground v.1.15,2013-03-01 05:33:00,
2013-02-28 21:39:00,50.4,45.7,30.41,SW,234,0.0,0.0,84,0.00,,,0.00,Wunderground v.1.15,2013-03-01 05:39:00,
2013-02-28 21:45:00,50.2,45.6,30.41,SW,234,0.0,0.0,84,0.00,,,0.00,Wunderground v.1.15,2013-03-01 05:45:00,
2013-02-28 21:51:00,49.9,45.3,30.40,SW,234,0.0,0.0,84,0.00,,,0.00,Wunderground v.1.15,2013-03-01 05:51:00,
2013-02-28 21:57:00,49.7,45.4,30.40,SW,234,0.0,0.0,85,0.00,,,0.00,Wunderground v.1.15,2013-03-01 05:57:00,
2013-02-28 22:03:00,49.6,45.3,30.40,SW,234,0.0,0.0,85,0.00,,,0.00,Wunderground v.1.15,2013-03-01 06:03:00,
2013-02-28 22:09:00,49.4,45.1,30.40,SW,234,0.0,0.0,85,0.00,,,0.00,Wunderground v.1.15,2013-03-01 06:09:00,
2013-02-28 22:16:00,49.2,44.9,30.40,SW,234,0.0,0.0,85,0.00,,,0.00,Wunderground v.1.15,2013-03-01 06:16:00,
2013-02-28 22:21:00,49.0,44.7,30.40,SW,234,0.0,0.0,85,0.00,,,0.00,Wunderground v.1.15,2013-03-01 06:21:00,
2013-02-28 22:27:00,48.9,44.6,30.40,SW,234,0.0,0.0,85,0.00,,,0.00,Wunderground v.1.15,2013-03-01 06:27:00,
2013-02-28 22:33:00,48.7,44.7,30.41,SW,234,0.0,0.0,86,0.00,,,0.00,Wunderground v.1.15,2013-03-01 06:33:00,
2013-02-28 22:39:00,48.6,44.6,30.41,SW,234,0.0,0.0,86,0.00,,,0.00,Wunderground v.1.15,2013-03-01 06:39:00,
2013-02-28 22:45:00,48.3,44.3,30.41,SW,234,0.0,0.0,86,0.00,,,0.00,Wunderground v.1.15,2013-03-01 06:45:00,
2013-02-28 22:51:00,48.2,44.2,30.41,SW,234,0.0,0.0,86,0.00,,,0.00,Wunderground v.1.15,2013-03-01 06:51:00,
2013-02-28 22:57:00,48.0,44.0,30.41,SW,234,0.0,0.0,86,0.00,,,0.00,Wunderground v.1.15,2013-03-01 06:57:00,
2013-02-28 23:03:00,47.8,43.8,30.41,SW,234,0.0,0.0,86,0.00,,,0.00,Wunderground v.1.15,2013-03-01 07:03:00,
2013-02-28 23:09:00,47.6,43.6,30.41,SW,234,0.0,0.0,86,0.00,,,0.00,Wunderground v.1.15,2013-03-01 07:09:00,
2013-02-28 23:15:00,47.4,43.4,30.40,SW,234,0.0,0.0,86,0.00,,,0.00,Wunderground v.1.15,2013-03-01 07:15:00,
2013-02-28 23:21:00,47.3,43.3,30.40,SW,234,0.0,0.0,86,0.00,,,0.00,Wunderground v.1.15,2013-03-01 07:21:00,
2013-02-28 23:27:00,47.1,43.1,30.40,SW,234,0.0,0.0,86,0.00,,,0.00,Wunderground v.1.15,2013-03-01 07:27:00,
2013-02-28 23:33:00,46.9,43.2,30.40,SW,234,0.0,0.0,87,0.00,,,0.00,Wunderground v.1.15,2013-03-01 07:33:00,
2013-02-28 23:39:00,46.8,43.1,30.40,SW,234,0.0,0.0,87,0.00,,,0.00,Wunderground v.1.15,2013-03-01 07:39:00,
2013-02-28 23:46:00,46.7,43.0,30.40,SW,234,0.0,0.0,87,0.00,,,0.00,Wunderground v.1.15,2013-03-01 07:46:00,
2013-02-28 23:51:00,46.5,42.8,30.40,SW,234,0.0,0.0,87,0.00,,,0.00,Wunderground v.1.15,2013-03-01 07:51:00,
2013-02-28 23:57:00,46.4,42.7,30.40,SW,234,0.0,0.0,87,0.00,,,0.00,Wunderground v.1.15,2013-03-01 07:57:00,